LAGEOS 1 AKM, 8822

Orbit data source: Space-Track

LAGEOS 1 AKM, 8822 is space debris originally from a launch on Tue, 04 May 1976 UTC launched from the Air Force Western Test Range (AFWTR). Debris objects in space refer to the collection of defunct objects orbiting the Earth. Examples of debris include non-operational satellites, rocket bodies, and fragments generated from explosions, collisions, or faulty payload assembly.

Loading next visibility...
Identifier
8822, 1976-039C
Orbit
Active
Country
Flag of USUS
Related business
Manufacturer
Thiokol/TE
Mission
Spacecraft
Bus & Motor
STAR 24, TE-M-604
Mass
218 kg wet, 16 kg dry
Launch date (UTC)
1976-05-04 (49 years ago)
Launch vehicle
Unknown
Launch site
Air Force Western Test Range (AFWTR)
Object type
Payload
Rocket body
Debris
Shape & HBR
Sphere + Cone, 0.5 m
Radar Cross Section
0.569 m², Large (>1 m²)

Expand to show TLE details & history
Last TLE update: 5 days ago

TLE from 5 days ago
0 LAGEOS 1 AKM
1 08822U 76039C   25253.52375927  .00000028  00000-0  00000-0 0  9992
2 08822 109.8444  88.2416 0044627 358.9754 198.7537  6.38871043151282
Epoch: 2025-09-10T12:34Z
TLE epoch observation values (Epoch: 2025-09-10T12:34:12.8Z)
Latitude
-16.60202°
Longitude
83.73103°
Altitude
5,947.397 km
Speed
5.675 km/s
True Right ascension
17h 28m 19s
True Declination
-16° 32' 52"
Sunlit
Object was in daylight at epoch
Visualization orbit readout
Latitude
Unknown
Longitude
Unknown
Altitude
Unknown
Speed
Unknown
Apparent Right ascension
Unknown
Apparent Declination
Unknown
Sunlit
N/A
Visualization observer readout
Local Sidereal Time
03:56:45
Azimuth
Unknown
Elevation
Unknown
Doppler factor
Unknown
Orbital elements
Apogee altitude
5,943.986 km
Perigee altitude
5,834.495 km
Semi-major axis
12,267.378 km
Eccentricity
0.00446
Inclination
109.8444°
RAAN
88.2416°
Arg. of periapsis
358.9754°
True anomaly
198.59015°
Mean anomaly
198.7537°
Eccentric anomaly
198.67184°
Mean motion
1.59741 °/min
Orbital period
225.37 mins
BSTAR
0
Loading maneuver chart data...
Computing Atmospheric mass density...
Loading historical data...
Loading historical data...
Loading historical data...
Loading historical data...
Loading historical data...
Loading historical data...
Loading historical data...
Other satellites on launch #39 in the year 1976 (1976-05-04 UTC)

Documentation

Showing up to 5 results
|